[[{"header":{"parameterUnit":"m.s-1","parameterCategory":1,"la1":30.2991,"la2":30.254,"lo1":-89.0895,"lo2":-89.0444,"dy":0.0017,"dx":0.0017,"nx":28,"ny":28,"refTime":"2025-03-02T09:00:00:Z","depth":0,"parameterNumber":2,"parameterNumberName":"U-component_of_WINDS"},"data":[0,0,0,0,0,0,0,0,0,0,0,0,0,0,0,0,0,0,0,0,0,0,0,0,0,0,0,0,0,0,0,0,0,0,0,0,0,0,0,0,0,0,0,0,0,0,0,0,0,0,0,0,0,0,0,0,0,0,-5.0019,-5.0019,0,-5.0031,-5.0031,-5.0031,-4.9849,-4.9845,-4.984,-4.9835,-4.9849,-4.9854,-4.9859,0,0,0,0,0,0,0,0,0,0,0,0,0,-4.984,-4.9845,-5.0019,-5.0019,-5.0019,-5.0031,-5.0031,-5.0031,-4.985,-4.9844,-4.9838,-4.9833,-4.9848,-4.9854,-4.986,0,0,0,0,0,0,0,0,0,0,0,0,0,-4.9892,-4.9846,-5.0019,-4.993,-4.9923,-5.0031,-5.0031,-5.0031,-4.9852,-4.9844,-4.9837,-4.983,-4.9846,-4.9853,-4.986,-5.0055,0,0,-4.9883,-4.9886,0,0,0,0,0,0,0,0,-4.9889,-4.9899,-4.9943,-4.9937,-4.9928,-4.9931,-4.9973,-5.0039,-4.9853,-4.9879,-4.9835,-4.9826,-4.9883,-4.9887,-4.9905,-5.0055,-5.0056,-4.9884,-4.9888,-4.9892,-4.9894,0,0,0,0,0,0,0,-4.9886,-4.9897,-5.0024,-4.9944,-4.9935,-4.989,-4.9889,-4.9985,-4.9922,-4.9876,-4.9863,-4.9866,-4.9877,-4.9898,-4.9904,-5.0056,-4.9884,-4.989,-4.9895,-4.9898,-5.0364,-5.0371,0,0,0,0,0,0,-4.9894,-4.9895,-5.0023,-5.0024,-4.989,-4.99,-4.9898,-4.9938,-4.9921,-4.9911,-4.9873,-4.9858,-4.9889,-4.9896,-4.9904,-5.0129,-4.9892,-4.9899,-4.9903,-5.0356,-5.0366,-5.0374,0,0,0,0,0,0,-4.9891,-4.9907,-5.0023,-4.9956,-4.9967,-4.991,-4.9956,-4.9942,-4.9963,-4.9918,-4.9906,-4.9906,-4.9884,-4.9893,-5.0018,-5.0127,-4.9902,-4.9909,-5.0347,-5.0359,-5.037,-5.0581,0,0,0,0,0,0,-4.9887,-4.9907,-4.9981,-4.9959,-4.9972,-5.0137,-4.9963,-4.9947,-4.9976,-4.9957,-4.9946,-4.9937,-4.9879,-5.0008,-5.0025,-5.0133,-4.9915,-5.0337,-5.0352,-5.0366,-5.0564,-5.0599,-5.0628,0,0,0,0,0,-4.9881,-5.0041,-4.9985,-5.0002,-5.0062,-5.0144,-5.0151,-5.0079,-4.9986,-5.0058,-5.0029,-4.9938,-5.0112,-5.0022,-5.004,-5.0152,-5.033,-5.0348,-5.0365,-5.055,-5.0592,-5.0628,0,0,0,0,0,0,-5.0078,-5.0036,-4.9974,-5.0132,-5.0143,-5.0113,-5.0203,-5.0127,-5.0165,-5.0145,-5.0056,-5.0055,-5.0194,-5.0185,-5.0085,-5.0338,-5.0204,-5.0227,-5.0338,-5.0378,-5.041,-5.0409,-4.9921,0,0,0,0,0,-5.0139,-5.0208,-5.0169,-5.0311,-5.032,-5.0261,-5.0294,-5.0238,-5.0245,-5.0249,-5.0229,-5.0241,-5.0298,-5.0337,-5.0388,-5.0562,-5.0556,-5.0648,-5.068,-5.0706,-5.0726,-5.0816,-5.0856,-5.0433,-5.0432,-5.0432,0,0,-5.0267,-5.0253,-5.0303,-5.035,-5.0352,-5.0426,-5.0266,-5.0351,-5.0405,-5.0262,-5.0378,-5.0364,-5.0371,-5.0521,-5.0586,-5.0518,-5.0842,-5.0729,-5.075,-5.0756,-5.0839,-5.0879,-5.0915,-5.0445,-5.0442,-5.0441,0,0,-5.0538,-5.0535,-5.0652,-5.0657,-5.0661,-5.062,-5.0649,-5.0631,-5.0615,-5.073,-5.0624,-5.0687,-5.0787,-5.0796,-5.0814,-5.1086,-5.1003,-5.1105,-5.1272,-5.1361,-5.1395,-5.1424,-5.152,-5.1555,-5.1125,-5.1126,-5.1126,0,-5.0697,-5.0803,-5.0723,-5.0814,-5.0838,-5.0711,-5.0829,-5.0838,-5.0859,-5.0878,-5.0801,-5.0923,-5.0919,-5.1069,-5.1135,-5.1154,-5.1183,-5.1106,-5.1396,-5.1425,-5.145,-5.1541,-5.1578,-5.1138,-5.1137,-5.1136,-5.1134,0,-5.0997,-5.1073,-5.1167,-5.1189,-5.1223,-5.1329,-5.1264,-5.1308,-5.1249,-5.1217,-5.1334,-5.1324,-5.137,-5.1401,-5.1345,-5.1542,-5.15,-5.1412,-5.1275,-5.1505,-5.1588,-5.1622,-5.1156,-5.1152,-5.1148,-5.1145,0,0,-5.1393,-5.1368,-5.1404,-5.1411,-5.1406,-5.1462,-5.1561,-5.1604,-5.1643,-5.1662,-5.1742,-5.1829,-5.1747,-5.1767,-5.171,-5.1789,-5.2003,-5.169,-5.1688,-5.1748,-5.2219,-5.2285,-5.2327,-5.1948,-5.1954,-5.1959,-5.2218,0,-5.1655,-5.1821,-5.1751,-5.1924,-5.1991,-5.1871,-5.1957,-5.1963,-5.1936,-5.1989,-5.1958,-5.2021,-5.1908,-5.1919,-5.1991,-5.1962,-5.2097,-5.1943,-5.2021,-5.2025,-5.2022,-5.237,-5.244,-5.2685,-5.225,-5.2256,-5.226,0,-5.1983,-5.2013,-5.2193,-5.2173,-5.2199,-5.2278,-5.231,-5.2363,-5.2368,-5.2342,-5.2364,-5.2289,-5.2384,-5.2249,-5.2379,-5.2275,-5.2303,-5.2294,-5.2302,-5.2306,-5.2156,-5.2383,-5.2761,-5.2798,-5.2311,-5.2307,-5.2303,0,-5.2252,-5.2338,-5.2456,-5.2466,-5.2447,-5.2504,-5.2499,-5.2496,-5.2526,-5.2555,-5.2573,-5.2614,-5.2636,-5.2669,-5.2607,-5.2515,-5.2745,-5.2605,-5.2725,-5.2727,-5.2779,-5.2776,-5.3166,-5.2799,-5.2799,-5.2798,-5.2797,0,-5.2551,-5.2666,-5.2576,-5.2649,-5.2772,-5.269,-5.2816,-5.2797,-5.2795,-5.2862,-5.2761,-5.2826,-5.2741,-5.2797,-5.275,-5.2863,-5.2875,-5.2856,-5.2842,-5.2865,-5.2867,-5.2881,-5.2862,-5.2808,-5.2806,-5.2804,-5.2802,0,-5.2873,-5.2817,-5.2937,-5.2909,-5.2904,-5.2997,-5.2972,-5.3038,-5.3002,-5.3088,-5.3104,-5.3049,-5.311,-5.3052,-5.311,-5.3078,-5.323,-5.3191,-5.3228,-5.3217,-5.334,-5.3329,-5.3752,-5.3803,-5.3405,-5.3409,-5.3412,0,-5.3067,-5.3151,-5.3131,-5.3168,-5.3168,-5.323,-5.3259,-5.3181,-5.3216,-5.3226,-5.3291,-5.3344,-5.3381,-5.3485,-5.345,-5.3494,-5.3456,-5.3601,-5.3462,-5.3481,-5.3456,-5.3451,-5.3459,-5.3629,-5.3634,-5.3638,-5.3641,0,-5.3417,-5.3385,-5.343,-5.3467,-5.3504,-5.3529,-5.3547,-5.3583,-5.3503,-5.3547,-5.3608,-5.3637,-5.3696,-5.3749,-5.3782,-5.3776,-5.3696,-5.3685,-5.3715,-5.3739,-5.3756,-5.3747,-5.3304,-5.3676,-5.3672,-5.367,-5.3668,-5.3666,-5.3679,-5.3748,-5.3744,-5.3798,-5.3802,-5.3821,-5.388,-5.3852,-5.3901,-5.3942,-5.3893,-5.3968,-5.3968,-5.4004,-5.4008,-5.4065,-5.4004,-5.4048,-5.4058,-5.407,-5.4088,-5.3748,-5.4071,-5.407,-5.4069,-5.4068,-5.4067,0,-5.4022,-5.4013,-5.4064,-5.409,-5.4133,-5.4052,-5.4067,-5.4108,-5.4174,-5.4181,-5.422,-5.4289,-5.434,-5.4309,-5.4352,-5.4404,-5.4368,-5.4418,-5.4412,-5.4412,-5.4141,-5.411,-5.4446,-5.4446,-5.4446,-5.4446,-5.4446,-5.4445,-5.4206,-5.4317,-5.4285,-5.4398,-5.4388,-5.4459,-5.4474,-5.449,-5.4495,-5.4576,-5.4617,-5.4597,-5.4588,-5.463,-5.4673,-5.4662,-5.4682,-5.4746,-5.4722,-5.4469,-5.4432,-5.4396,-5.4366,-5.4751,-5.4751,-5.4988,-5.4991,-5.4992]},{"header":{"parameterUnit":"m.s-1","parameterCategory":1,"la1":30.2991,"la2":30.254,"lo1":-89.0895,"lo2":-89.0444,"dy":0.0017,"dx":0.0017,"nx":28,"ny":28,"refTime":"2025-03-02T09:00:00:Z","depth":0,"parameterNumber":3,"parameterNumberName":"V-component_of_WINDS"},"data":[0,0,0,0,0,0,0,0,0,0,0,0,0,0,0,0,0,0,0,0,0,0,0,0,0,0,0,0,0,0,0,0,0,0,0,0,0,0,0,0,0,0,0,0,0,0,0,0,0,0,0,0,0,0,0,0,0,0,-1.9501,-1.9502,0,-1.9587,-1.9588,-1.9589,-1.9596,-1.9595,-1.9594,-1.9593,-1.9681,-1.9684,-1.9687,0,0,0,0,0,0,0,0,0,0,0,0,0,-1.9341,-1.9344,-1.9501,-1.9502,-1.9503,-1.9587,-1.9588,-1.9589,-1.9596,-1.9595,-1.9594,-1.9593,-1.968,-1.9684,-1.9688,0,0,0,0,0,0,0,0,0,0,0,0,0,-1.9417,-1.9345,-1.9501,-1.9517,-1.9519,-1.9586,-1.9588,-1.9589,-1.9596,-1.9595,-1.9594,-1.9592,-1.9679,-1.9684,-1.9688,-1.9746,0,0,-1.9703,-1.9705,0,0,0,0,0,0,0,0,-1.9413,-1.9423,-1.9513,-1.9516,-1.9518,-1.9579,-1.9564,-1.9642,-1.9597,-1.9567,-1.9593,-1.9592,-1.9648,-1.9656,-1.9675,-1.975,-1.9753,-1.9703,-1.9706,-1.9708,-1.971,0,0,0,0,0,0,0,-1.9407,-1.9419,-1.9535,-1.9514,-1.9518,-1.9519,-1.9528,-1.9578,-1.9614,-1.9569,-1.957,-1.958,-1.965,-1.967,-1.9677,-1.9755,-1.9703,-1.9707,-1.971,-1.9712,-1.9879,-1.988,0,0,0,0,0,0,-1.9399,-1.9415,-1.9532,-1.9537,-1.9461,-1.9523,-1.9533,-1.9561,-1.9614,-1.9621,-1.9581,-1.958,-1.9663,-1.9671,-1.968,-1.9749,-1.9708,-1.9713,-1.9716,-1.9877,-1.9879,-1.9881,0,0,0,0,0,0,-1.9396,-1.941,-1.9529,-1.9476,-1.9491,-1.9527,-1.9558,-1.9564,-1.9584,-1.9623,-1.9629,-1.9596,-1.9662,-1.9673,-1.9729,-1.9753,-1.9715,-1.9719,-1.9876,-1.9878,-1.988,-1.9889,0,0,0,0,0,0,-1.9391,-1.9408,-1.9431,-1.9477,-1.9494,-1.9576,-1.956,-1.9566,-1.9592,-1.9592,-1.9638,-1.9645,-1.9662,-1.9722,-1.9734,-1.9758,-1.9723,-1.9874,-1.9877,-1.9879,-1.9887,-1.9892,-1.9896,0,0,0,0,0,-1.9385,-1.9431,-1.9432,-1.9446,-1.9523,-1.9578,-1.9588,-1.9607,-1.9594,-1.9617,-1.9641,-1.9643,-1.9748,-1.9727,-1.9741,-1.9767,-1.9872,-1.9876,-1.9879,-1.9885,-1.9891,-1.9895,0,0,0,0,0,0,-1.9387,-1.9437,-1.9439,-1.9501,-1.9535,-1.9579,-1.9608,-1.9612,-1.9651,-1.9649,-1.967,-1.968,-1.9735,-1.9757,-1.9733,-1.9825,-1.9809,-1.9815,-1.9809,-1.9814,-1.9818,-1.9812,-1.9727,0,0,0,0,0,-1.9395,-1.9435,-1.9476,-1.9526,-1.9543,-1.9573,-1.9597,-1.9608,-1.9645,-1.9659,-1.9688,-1.9723,-1.9764,-1.979,-1.983,-1.989,-1.99,-1.9915,-1.9919,-1.9922,-1.9928,-1.9959,-1.9966,-1.9892,-1.9892,-1.9892,0,0,-1.9411,-1.9443,-1.9467,-1.9527,-1.9555,-1.9596,-1.9585,-1.9629,-1.9659,-1.9666,-1.972,-1.9742,-1.9782,-1.984,-1.9867,-1.986,-1.995,-1.9927,-1.9929,-1.9933,-1.9964,-1.9971,-1.9977,-1.9895,-1.9894,-1.9894,0,0,-1.946,-1.9489,-1.9533,-1.9561,-1.9603,-1.9622,-1.9633,-1.9676,-1.9691,-1.9745,-1.9751,-1.9787,-1.9857,-1.9885,-1.9908,-1.9966,-1.9969,-1.9978,-2.0001,-2.0032,-2.0037,-2.0043,-2.0062,-2.0069,-1.9983,-1.9984,-1.9984,0,-1.9475,-1.9537,-1.9555,-1.9599,-1.9624,-1.9632,-1.9676,-1.9702,-1.9755,-1.9773,-1.9764,-1.9851,-1.9879,-1.9942,-1.9956,-1.9975,-1.9987,-1.9973,-2.0035,-2.0041,-2.0046,-2.0065,-2.0072,-1.9984,-1.9984,-1.9984,-1.9984,0,-1.9552,-1.9594,-1.9625,-1.9675,-1.9704,-1.9748,-1.9772,-1.98,-1.9808,-1.9827,-1.9882,-1.9915,-1.9961,-1.9977,-1.9986,-2.0041,-2.0035,-2.0031,-2.0015,-2.0053,-2.0071,-2.0079,-1.9986,-1.9985,-1.9985,-1.9985,0,0,-1.9606,-1.9665,-1.9676,-1.9698,-1.9744,-1.9777,-1.982,-1.9865,-1.9887,-1.9923,-1.9959,-2.0017,-2.0012,-2.0039,-2.0051,-2.0078,-2.012,-2.007,-2.0071,-2.0077,-2.0182,-2.0184,-2.0193,-2.0122,-2.0123,-2.0124,-2.0178,0,-1.966,-1.9738,-1.9755,-1.9821,-1.986,-1.9867,-1.9904,-1.9936,-1.9955,-1.999,-2.0011,-2.0052,-2.0043,-2.0059,-2.0086,-2.0109,-2.0141,-2.0106,-2.0155,-2.0156,-2.0144,-2.0202,-2.0206,-2.0255,-2.0185,-2.0187,-2.0187,0,-1.9734,-1.9771,-1.9841,-1.988,-1.9897,-1.9931,-1.9972,-2.0006,-2.0041,-2.0053,-2.0082,-2.009,-2.0134,-2.0116,-2.0177,-2.0152,-2.0173,-2.0187,-2.019,-2.0195,-2.0174,-2.0208,-2.0271,-2.0278,-2.0199,-2.0198,-2.0197,0,-1.9765,-1.9832,-1.9883,-1.9901,-1.9949,-1.9972,-1.9993,-2.0027,-2.0052,-2.0088,-2.0104,-2.0145,-2.0167,-2.0198,-2.0217,-2.0202,-2.0275,-2.0259,-2.0286,-2.0285,-2.0301,-2.03,-2.0367,-2.0315,-2.0315,-2.0315,-2.0315,0,-1.9824,-1.9866,-1.9897,-1.9928,-1.9975,-1.9994,-2.004,-2.006,-2.009,-2.0125,-2.0133,-2.0165,-2.0188,-2.0223,-2.0238,-2.0285,-2.0295,-2.0306,-2.0309,-2.0305,-2.0303,-2.0319,-2.0315,-2.0317,-2.0316,-2.0316,-2.0316,0,-1.9867,-1.9889,-1.9944,-1.9984,-1.9995,-2.0028,-2.0062,-2.0092,-2.011,-2.0153,-2.0164,-2.0194,-2.0235,-2.0257,-2.0309,-2.0318,-2.0371,-2.0373,-2.0359,-2.036,-2.0385,-2.0382,-2.0465,-2.0476,-2.0417,-2.0417,-2.0418,0,-1.9903,-1.9935,-1.9978,-2.0002,-2.0023,-2.0061,-2.0086,-2.0105,-2.0131,-2.0173,-2.0197,-2.0239,-2.0273,-2.0339,-2.0364,-2.0404,-2.0406,-2.0432,-2.0412,-2.0406,-2.0405,-2.0403,-2.0406,-2.0436,-2.0436,-2.0437,-2.0437,0,-1.9963,-1.9972,-2.0009,-2.0048,-2.0078,-2.011,-2.0142,-2.0161,-2.0185,-2.0213,-2.0255,-2.0282,-2.0334,-2.0375,-2.0416,-2.0437,-2.0441,-2.0443,-2.0451,-2.0447,-2.0437,-2.0442,-2.0368,-2.0441,-2.0441,-2.044,-2.044,-2.044,-2.0004,-2.0032,-2.0066,-2.0106,-2.0132,-2.0161,-2.019,-2.0212,-2.0247,-2.0291,-2.03,-2.0344,-2.0377,-2.0433,-2.0454,-2.0489,-2.0483,-2.0495,-2.0498,-2.0501,-2.0501,-2.0432,-2.0496,-2.0496,-2.0496,-2.0496,-2.0496,0,-2.0064,-2.0086,-2.0122,-2.0166,-2.0196,-2.0197,-2.0232,-2.0257,-2.0296,-2.0327,-2.036,-2.0407,-2.0446,-2.0474,-2.0514,-2.0536,-2.0539,-2.0546,-2.0544,-2.0549,-2.0504,-2.0493,-2.0543,-2.0543,-2.0543,-2.0543,-2.0543,-2.0543,-2.0099,-2.0147,-2.0159,-2.022,-2.0241,-2.0284,-2.0304,-2.033,-2.0355,-2.0407,-2.044,-2.0458,-2.0487,-2.0528,-2.0564,-2.0571,-2.0585,-2.0592,-2.0599,-2.0557,-2.0552,-2.0547,-2.0537,-2.0595,-2.0595,-2.064,-2.0641,-2.0641]}]]